| time (UTC) | temp C | wind direction | speed KPH | gust KPH | rain 1hr cm | rain 24hr cm | rain mn cm | humidity % | barometer mb |
| 20260504215018 | 24 | 163 | 6.4 | 12.9 | 0.00 | 0.00 | 0.00 | 36 | 1009.5 |
| 20260504214018 | 24 | 176 | 9.7 | 20.9 | 0.00 | 0.00 | 0.00 | 36 | 1009.6 |
| 20260504213015 | 24 | 168 | 9.7 | 19.3 | 0.00 | 0.00 | 0.00 | 36 | 1009.6 |
| 20260504212016 | 25 | 165 | 8.0 | 17.7 | 0.00 | 0.00 | 0.00 | 35 | 1009.7 |
| 20260504211036 | 25 | 180 | 8.0 | 16.1 | 0.00 | 0.00 | 0.00 | 35 | 1009.8 |
| 20260504210016 | 24 | 197 | 8.0 | 14.5 | 0.00 | 0.00 | 0.00 | 36 | 1009.8 |
| 20260504205016 | 24 | 184 | 9.7 | 17.7 | 0.00 | 0.00 | 0.00 | 36 | 1009.9 |
| 20260504204036 | 24 | 191 | 9.7 | 17.7 | 0.00 | 0.00 | 0.00 | 36 | 1009.9 |
| 20260504203017 | 24 | 197 | 9.7 | 17.7 | 0.00 | 0.00 | 0.00 | 36 | 1010.1 |
| 20260504202017 | 24 | 184 | 8.0 | 16.1 | 0.00 | 0.00 | 0.00 | 36 | 1010.2 |
| 20260504201017 | 24 | 171 | 9.7 | 17.7 | 0.00 | 0.00 | 0.00 | 35 | 1010.3 |
| 20260504200017 | 24 | 176 | 8.0 | 19.3 | 0.00 | 0.00 | 0.00 | 35 | 1010.4 |
| 20260504195017 | 24 | 191 | 9.7 | 17.7 | 0.00 | 0.00 | 0.00 | 35 | 1010.6 |
| 20260504194017 | 23 | 192 | 9.7 | 16.1 | 0.00 | 0.00 | 0.00 | 36 | 1010.6 |
| 20260504193018 | 23 | 197 | 8.0 | 14.5 | 0.00 | 0.00 | 0.00 | 36 | 1010.8 |
| 20260504192018 | 23 | 179 | 8.0 | 16.1 | 0.00 | 0.00 | 0.00 | 36 | 1010.9 |
| 20260504191018 | 23 | 179 | 8.0 | 19.3 | 0.00 | 0.00 | 0.00 | 36 | 1011.1 |
| 20260504190018 | 23 | 190 | 8.0 | 16.1 | 0.00 | 0.00 | 0.00 | 36 | 1011.2 |
| 20260504185018 | 23 | 199 | 6.4 | 12.9 | 0.00 | 0.00 | 0.00 | 36 | 1011.4 |
| 20260504184015 | 23 | 203 | 9.7 | 16.1 | 0.00 | 0.00 | 0.00 | 37 | 1011.4 |
| 20260504183017 | 22 | 196 | 8.0 | 14.5 | 0.00 | 0.00 | 0.00 | 36 | 1011.6 |
| 20260504182036 | 22 | 195 | 9.7 | 19.3 | 0.00 | 0.00 | 0.00 | 37 | 1011.8 |
| 20260504181016 | 23 | 186 | 8.0 | 17.7 | 0.00 | 0.00 | 0.00 | 36 | 1011.9 |
| 20260504180016 | 22 | 183 | 6.4 | 12.9 | 0.00 | 0.00 | 0.00 | 37 | 1012.1 |
| 20260504175016 | 22 | 201 | 8.0 | 16.1 | 0.00 | 0.00 | 0.00 | 37 | 1012.0 |
| 20260504174016 | 22 | 193 | 8.0 | 17.7 | 0.00 | 0.00 | 0.00 | 36 | 1012.0 |
| 20260504173017 | 22 | 196 | 8.0 | 14.5 | 0.00 | 0.00 | 0.00 | 36 | 1012.1 |
| 20260504172017 | 22 | 166 | 8.0 | 17.7 | 0.00 | 0.00 | 0.00 | 36 | 1012.1 |
| 20260504171017 | 22 | 199 | 8.0 | 19.3 | 0.00 | 0.00 | 0.00 | 35 | 1012.3 |
| 20260504151016 | 19 | 207 | 4.8 | 14.5 | 0.00 | 0.00 | 0.00 | 45 | 1013.7 |
| 20260504141017 | 17 | 184 | 6.4 | 12.9 | 0.00 | 0.00 | 0.00 | 50 | 1013.8 |
| 20260504081017 | 11 | 146 | 3.2 | 6.4 | 0.00 | 0.00 | 0.00 | 77 | 1014.8 |
| 20260504050017 | 6 | 151 | 0.0 | 1.6 | 0.00 | 0.00 | 0.00 | 87 | 1015.0 |
| 20260504045017 | 6 | 108 | 0.0 | 1.6 | 0.00 | 0.00 | 0.00 | 85 | 1015.1 |
| 20260504044017 | 6 | 0.0 | 0.0 | 0.00 | 0.00 | 0.00 | 83 | 1015.1 | |
| 20260504043017 | 6 | 139 | 0.0 | 3.2 | 0.00 | 0.00 | 0.00 | 83 | 1015.0 |
| 20260504042018 | 6 | 0.0 | 0.0 | 0.00 | 0.00 | 0.00 | 83 | 1015.0 | |
| 20260504041018 | 6 | 0.0 | 0.0 | 0.00 | 0.00 | 0.00 | 82 | 1014.9 | |
| 20260504040018 | 6 | 0.0 | 0.0 | 0.00 | 0.00 | 0.00 | 81 | 1014.8 | |
| 20260504035015 | 6 | 0.0 | 0.0 | 0.00 | 0.00 | 0.00 | 79 | 1014.7 | |
| 20260504034015 | 5 | 121 | 0.0 | 1.6 | 0.00 | 0.00 | 0.00 | 81 | 1014.7 |
| 20260504033015 | 5 | 0.0 | 0.0 | 0.00 | 0.00 | 0.00 | 83 | 1014.7 | |
| 20260504032016 | 6 | 94 | 0.0 | 1.6 | 0.00 | 0.00 | 0.00 | 81 | 1014.5 |
| 20260504031016 | 5 | 0.0 | 0.0 | 0.00 | 0.00 | 0.00 | 80 | 1014.4 | |
| 20260504030036 | 6 | 118 | 0.0 | 1.6 | 0.00 | 0.00 | 0.00 | 82 | 1014.5 |
| 20260504025016 | 6 | 107 | 0.0 | 3.2 | 0.00 | 0.00 | 0.00 | 80 | 1014.5 |
| 20260504024017 | 6 | 103 | 0.0 | 1.6 | 0.00 | 0.00 | 0.00 | 78 | 1014.4 |
| 20260504023036 | 6 | 0.0 | 0.0 | 0.00 | 0.00 | 0.00 | 78 | 1014.5 | |
| 20260504022017 | 7 | 127 | 0.0 | 3.2 | 0.00 | 0.00 | 0.00 | 78 | 1014.5 |
| 20260504021017 | 7 | 113 | 0.0 | 3.2 | 0.00 | 0.00 | 0.00 | 75 | 1014.4 |
| 20260504020017 | 7 | 0.0 | 0.0 | 0.00 | 0.00 | 0.00 | 74 | 1014.4 | |
| 20260504015017 | 7 | 0.0 | 0.0 | 0.00 | 0.00 | 0.00 | 74 | 1014.4 | |
| 20260504014017 | 8 | 107 | 0.0 | 3.2 | 0.00 | 0.00 | 0.00 | 70 | 1014.3 |
| 20260504013017 | 8 | 104 | 0.0 | 1.6 | 0.00 | 0.00 | 0.00 | 69 | 1014.2 |
| 20260504012018 | 8 | 0.0 | 0.0 | 0.00 | 0.00 | 0.00 | 68 | 1014.1 | |
| 20260504011018 | 9 | 0.0 | 0.0 | 0.00 | 0.00 | 0.00 | 68 | 1014.1 | |
| 20260504010019 | 10 | 111 | 0.0 | 1.6 | 0.00 | 0.00 | 0.00 | 65 | 1014.0 |
| 20260504005015 | 10 | 0.0 | 0.0 | 0.00 | 0.00 | 0.00 | 60 | 1014.0 | |
| 20260504004015 | 11 | 99 | 0.0 | 3.2 | 0.00 | 0.00 | 0.00 | 58 | 1013.9 |
| 20260504003016 | 12 | 118 | 0.0 | 3.2 | 0.00 | 0.00 | 0.00 | 53 | 1013.8 |
| 20260504002016 | 13 | 130 | 1.6 | 3.2 | 0.00 | 0.00 | 0.00 | 49 | 1013.6 |
| 20260504001016 | 13 | 197 | 1.6 | 3.2 | 0.00 | 0.00 | 0.00 | 46 | 1013.6 |
| 20260504000016 | 14 | 191 | 0.0 | 3.2 | 0.00 | 0.00 | 0.00 | 45 | 1013.4 |
| 20260503235016 | 15 | 184 | 1.6 | 4.8 | 0.00 | 0.00 | 0.00 | 43 | 1013.3 |
| 20260503234017 | 15 | 196 | 3.2 | 6.4 | 0.00 | 0.00 | 0.00 | 41 | 1013.2 |
| 20260503233017 | 15 | 198 | 1.6 | 4.8 | 0.00 | 0.00 | 0.00 | 40 | 1013.2 |
| 20260503232038 | 15 | 202 | 3.2 | 6.4 | 0.00 | 0.00 | 0.00 | 39 | 1013.2 |
| 20260503231018 | 16 | 208 | 4.8 | 9.7 | 0.00 | 0.00 | 0.00 | 39 | 1013.2 |
| 20260503230017 | 16 | 208 | 1.6 | 6.4 | 0.00 | 0.00 | 0.00 | 38 | 1013.2 |
| 20260503225018 | 16 | 205 | 3.2 | 12.9 | 0.00 | 0.00 | 0.00 | 37 | 1013.3 |
| 20260503224018 | 16 | 210 | 4.8 | 12.9 | 0.00 | 0.00 | 0.00 | 36 | 1013.2 |
| 20260503223015 | 17 | 204 | 4.8 | 12.9 | 0.00 | 0.00 | 0.00 | 37 | 1013.2 |
| 20260503222035 | 17 | 225 | 4.8 | 14.5 | 0.00 | 0.00 | 0.00 | 36 | 1013.3 |
| 20260503221018 | 16 | 204 | 4.8 | 12.9 | 0.00 | 0.00 | 0.00 | 36 | 1013.3 |
| 20260503220015 | 16 | 214 | 6.4 | 16.1 | 0.00 | 0.00 | 0.00 | 37 | 1013.4 |